{"data":{"norad_id":63579,"intl_designator":"2025-076L","name":"STARLINK-33755","alt_names":[],"object_type":"PAYLOAD","status":"ACTIVE","operator":null,"country":"US","launch_date":"2025-04-14","launch_site_code":"AFETR","launch_vehicle":null,"mission":null,"orbit_class":"UNKNOWN","rcs_meters":null,"size_class":null,"mass_kg":null,"dimensions":null,"purposes":["comms"],"wikipedia_slug":null,"has_3d_model":false,"image_url":null,"decayed_at":null,"tle_current":{"epoch":"2026-09-20T03:58:57.692064Z","epoch_age_seconds":181458,"freshness":"STALE","line1":"1 63579U 25076L   26263.16594551  .00004820  00000+0  18456-3 0  9995","line2":"2 63579  43.0005 303.2573 0001016 248.3123 111.7621 15.27578833 81577","mean_motion":15.27578833,"eccentricity":0.0001016,"inclination_deg":43.0005,"raan_deg":303.2573,"arg_perigee_deg":248.3123,"mean_anomaly_deg":111.7621,"bstar":0.00018456,"rev_number":8157,"period_min":94.266820729114,"perigee_km":482.35549359731,"apogee_km":483.74968732209,"semimajor_km":6861.1895904597,"source":"CELESTRAK","updated_at":"2026-09-21T09:00:35.046586Z"}}}